[[{"header":{"parameterUnit":"m.s-1","parameterCategory":1,"la1":30.2991,"la2":30.254,"lo1":-89.0895,"lo2":-89.0444,"dy":0.0017,"dx":0.0017,"nx":28,"ny":28,"refTime":"2026-02-13T09:00:00:Z","depth":0,"parameterNumber":2,"parameterNumberName":"U-component_of_WINDS"},"data":[0,0,0,0,0,0,0,0,0,0,0,0,0,0,0,0,0,0,0,0,0,0,0,0,0,0,0,0,0,0,0,0,0,0,0,0,0,0,0,0,0,0,0,0,0,0,0,0,0,0,0,0,0,0,0,0,0,0,-5.0713,-5.0714,0,-5.0786,-5.0787,-5.0788,-5.0746,-5.0744,-5.0742,-5.074,-5.0811,-5.0815,-5.0819,0,0,0,0,0,0,0,0,0,0,0,0,0,-5.0536,-5.054,-5.0713,-5.0714,-5.0715,-5.0786,-5.0787,-5.0788,-5.0746,-5.0744,-5.0741,-5.0739,-5.081,-5.0815,-5.0819,0,0,0,0,0,0,0,0,0,0,0,0,0,-5.0611,-5.0541,-5.0712,-5.0703,-5.0702,-5.0786,-5.0787,-5.0788,-5.0747,-5.0744,-5.0741,-5.0738,-5.0809,-5.0814,-5.082,-5.0916,0,0,-5.0837,-5.084,0,0,0,0,0,0,0,0,-5.0607,-5.0618,-5.0703,-5.0703,-5.0703,-5.0754,-5.0751,-5.0831,-5.0748,-5.073,-5.074,-5.0737,-5.0794,-5.0801,-5.0821,-5.0919,-5.0922,-5.0838,-5.0841,-5.0844,-5.0845,0,0,0,0,0,0,0,-5.0602,-5.0615,-5.0741,-5.0704,-5.0705,-5.0694,-5.0702,-5.0766,-5.0778,-5.0731,-5.0728,-5.0738,-5.0794,-5.0816,-5.0823,-5.0923,-5.0838,-5.0843,-5.0846,-5.0848,-5.1106,-5.1109,0,0,0,0,0,0,-5.0598,-5.061,-5.0739,-5.0744,-5.0647,-5.07,-5.0708,-5.0741,-5.0777,-5.078,-5.074,-5.0736,-5.0808,-5.0816,-5.0825,-5.0941,-5.0844,-5.0849,-5.0852,-5.1103,-5.1107,-5.1111,0,0,0,0,0,0,-5.0594,-5.061,-5.0736,-5.0676,-5.0692,-5.0706,-5.0743,-5.0744,-5.0766,-5.0784,-5.0786,-5.0761,-5.0806,-5.0817,-5.0894,-5.0943,-5.0851,-5.0857,-5.1099,-5.1104,-5.1109,-5.1172,0,0,0,0,0,0,-5.0589,-5.0609,-5.0645,-5.0678,-5.0695,-5.0804,-5.0746,-5.0747,-5.0776,-5.0771,-5.0804,-5.0806,-5.0804,-5.0886,-5.09,-5.0949,-5.0861,-5.1094,-5.1101,-5.1107,-5.1166,-5.1179,-5.119,0,0,0,0,0,-5.0583,-5.0658,-5.0647,-5.0663,-5.0741,-5.0807,-5.0817,-5.0814,-5.078,-5.0817,-5.083,-5.0805,-5.0936,-5.0894,-5.091,-5.0961,-5.1091,-5.1099,-5.1107,-5.1161,-5.1177,-5.119,0,0,0,0,0,0,-5.0628,-5.0662,-5.065,-5.0738,-5.0771,-5.08,-5.0846,-5.0831,-5.0872,-5.0865,-5.0859,-5.0867,-5.0947,-5.0962,-5.0915,-5.1057,-5.1008,-5.1019,-5.1044,-5.1059,-5.1071,-5.1065,-5.0866,0,0,0,0,0,-5.0649,-5.0701,-5.0728,-5.0803,-5.082,-5.0831,-5.0859,-5.0855,-5.0887,-5.09,-5.0918,-5.095,-5.0999,-5.103,-5.1075,-5.1169,-5.1176,-5.1213,-5.1225,-5.1235,-5.1243,-5.1296,-5.1313,-5.1136,-5.1136,-5.1136,0,0,-5.0691,-5.0717,-5.0749,-5.0813,-5.0837,-5.0891,-5.0842,-5.09,-5.094,-5.0908,-5.0983,-5.0998,-5.1033,-5.112,-5.1159,-5.1135,-5.1295,-5.1244,-5.1252,-5.1256,-5.1306,-5.1322,-5.1337,-5.1141,-5.114,-5.114,0,0,-5.0795,-5.082,-5.0886,-5.0913,-5.0952,-5.0959,-5.0976,-5.1009,-5.1018,-5.1094,-5.1072,-5.112,-5.1203,-5.1229,-5.1254,-5.1374,-5.1354,-5.1389,-5.1452,-5.1503,-5.1517,-5.1529,-5.1572,-5.1588,-5.1399,-5.1399,-5.1399,0,-5.0842,-5.0923,-5.0922,-5.0983,-5.1012,-5.099,-5.1057,-5.1083,-5.1134,-5.1155,-5.1128,-5.1234,-5.1256,-5.1349,-5.1379,-5.14,-5.1418,-5.1384,-5.1515,-5.1528,-5.1539,-5.158,-5.1596,-5.1403,-5.1402,-5.1402,-5.1402,0,-5.0979,-5.1036,-5.1085,-5.1137,-5.1172,-5.1236,-5.1245,-5.1281,-5.1275,-5.1286,-5.1364,-5.1391,-5.1442,-5.1465,-5.1458,-5.1558,-5.1542,-5.1516,-5.1466,-5.156,-5.1598,-5.1614,-5.1409,-5.1407,-5.1406,-5.1405,0,0,-5.1108,-5.1164,-5.1182,-5.1207,-5.125,-5.1294,-5.1358,-5.1411,-5.1442,-5.1479,-5.1532,-5.1606,-5.1583,-5.1611,-5.1608,-5.1654,-5.1748,-5.1622,-5.1622,-5.1644,-5.1861,-5.1879,-5.1898,-5.1737,-5.174,-5.1742,-5.1858,0,-5.1215,-5.1327,-5.1331,-5.1434,-5.1487,-5.1469,-5.1526,-5.1559,-5.1572,-5.1618,-5.1632,-5.1685,-5.165,-5.1667,-5.1712,-5.1727,-5.1792,-5.1719,-5.1785,-5.1788,-5.1775,-5.1918,-5.1936,-5.2044,-5.1873,-5.1875,-5.1877,0,-5.1352,-5.1397,-5.1506,-5.1546,-5.1568,-5.1619,-5.1669,-5.1714,-5.1752,-5.1759,-5.1793,-5.1785,-5.1851,-5.1802,-5.1893,-5.1844,-5.1872,-5.1884,-5.1889,-5.1892,-5.1836,-5.1924,-5.2078,-5.2094,-5.1901,-5.1899,-5.1897,0,-5.1435,-5.1523,-5.1601,-5.1623,-5.1671,-5.1707,-5.1728,-5.1764,-5.1796,-5.1841,-5.1862,-5.1913,-5.194,-5.198,-5.1986,-5.195,-5.2078,-5.2029,-5.2085,-5.2085,-5.211,-5.2108,-5.2269,-5.2131,-5.2131,-5.2131,-5.2131,0,-5.1552,-5.162,-5.1639,-5.1686,-5.1762,-5.1767,-5.1841,-5.186,-5.1893,-5.1943,-5.1932,-5.198,-5.1986,-5.2036,-5.2041,-5.2116,-5.2129,-5.2136,-5.2136,-5.2136,-5.2135,-5.2152,-5.2144,-5.2135,-5.2134,-5.2133,-5.2133,0,-5.1656,-5.1672,-5.1755,-5.1796,-5.1808,-5.1862,-5.1896,-5.1942,-5.1956,-5.202,-5.2036,-5.2057,-5.2116,-5.2127,-5.2195,-5.2199,-5.2289,-5.2282,-5.2276,-5.2274,-5.2329,-5.2324,-5.2506,-5.253,-5.2378,-5.2379,-5.2381,0,-5.1728,-5.178,-5.1828,-5.1862,-5.1886,-5.1941,-5.1976,-5.1984,-5.202,-5.2071,-5.211,-5.2168,-5.2214,-5.2309,-5.233,-5.2383,-5.2377,-5.2437,-5.2384,-5.2383,-5.2377,-5.2373,-5.2378,-5.2446,-5.2448,-5.2449,-5.245,0,-5.1855,-5.1862,-5.1912,-5.1967,-5.2009,-5.2052,-5.2093,-5.2122,-5.2136,-5.2177,-5.2238,-5.2275,-5.2347,-5.2404,-5.2458,-5.248,-5.2468,-5.2468,-5.2483,-5.2482,-5.2476,-5.248,-5.2302,-5.2462,-5.2461,-5.246,-5.246,-5.2459,-5.1944,-5.199,-5.2032,-5.209,-5.2123,-5.2163,-5.2208,-5.223,-5.2281,-5.2341,-5.2344,-5.2411,-5.2451,-5.2523,-5.2549,-5.2601,-5.2582,-5.2604,-5.261,-5.2615,-5.2619,-5.2471,-5.2611,-5.2611,-5.261,-5.261,-5.261,0,-5.2069,-5.2097,-5.2151,-5.221,-5.2256,-5.2244,-5.229,-5.2329,-5.2388,-5.2428,-5.2476,-5.2547,-5.2604,-5.2632,-5.2689,-5.2726,-5.2722,-5.274,-5.2736,-5.2742,-5.2634,-5.2614,-5.2743,-5.2743,-5.2743,-5.2743,-5.2743,-5.2743,-5.214,-5.2218,-5.223,-5.2326,-5.2352,-5.2419,-5.2447,-5.2484,-5.2516,-5.2597,-5.2645,-5.2664,-5.27,-5.276,-5.2812,-5.2819,-5.284,-5.2861,-5.2865,-5.2763,-5.2749,-5.2736,-5.2718,-5.2866,-5.2866,-5.2969,-5.297,-5.297]},{"header":{"parameterUnit":"m.s-1","parameterCategory":1,"la1":30.2991,"la2":30.254,"lo1":-89.0895,"lo2":-89.0444,"dy":0.0017,"dx":0.0017,"nx":28,"ny":28,"refTime":"2026-02-13T09:00:00:Z","depth":0,"parameterNumber":3,"parameterNumberName":"V-component_of_WINDS"},"data":[0,0,0,0,0,0,0,0,0,0,0,0,0,0,0,0,0,0,0,0,0,0,0,0,0,0,0,0,0,0,0,0,0,0,0,0,0,0,0,0,0,0,0,0,0,0,0,0,0,0,0,0,0,0,0,0,0,0,1.9161,1.9161,0,1.9201,1.9201,1.9202,1.9218,1.9218,1.9218,1.9218,1.9256,1.9257,1.9258,0,0,0,0,0,0,0,0,0,0,0,0,0,1.9099,1.91,1.9161,1.9161,1.9162,1.9201,1.9201,1.9202,1.9218,1.9218,1.9218,1.9218,1.9256,1.9257,1.9258,0,0,0,0,0,0,0,0,0,0,0,0,0,1.9131,1.9101,1.9161,1.9175,1.9177,1.92,1.9201,1.9202,1.9218,1.9218,1.9218,1.9218,1.9255,1.9257,1.9259,1.927,0,0,1.9263,1.9264,0,0,0,0,0,0,0,0,1.9129,1.9133,1.9172,1.9174,1.9176,1.9204,1.9193,1.9225,1.9218,1.9202,1.9218,1.9218,1.9239,1.9242,1.9249,1.9272,1.9274,1.9264,1.9265,1.9265,1.9266,0,0,0,0,0,0,0,1.9127,1.9132,1.9176,1.9173,1.9175,1.9179,1.9184,1.9199,1.9221,1.9204,1.9205,1.921,1.924,1.9248,1.925,1.9274,1.9264,1.9265,1.9266,1.9267,1.9313,1.9313,0,0,0,0,0,0,1.9123,1.913,1.9175,1.9178,1.9152,1.918,1.9185,1.9195,1.922,1.9224,1.921,1.921,1.9245,1.9249,1.9252,1.927,1.9265,1.9267,1.9268,1.9313,1.9313,1.9313,0,0,0,0,0,0,1.9121,1.9127,1.9174,1.9154,1.9161,1.9182,1.9193,1.9196,1.9204,1.9225,1.9229,1.9214,1.9245,1.925,1.9267,1.9272,1.9267,1.9269,1.9312,1.9313,1.9313,1.9305,0,0,0,0,0,0,1.9119,1.9126,1.913,1.9154,1.9161,1.9188,1.9193,1.9197,1.9207,1.9208,1.923,1.9234,1.9245,1.9264,1.9268,1.9274,1.927,1.9312,1.9313,1.9313,1.9305,1.9305,1.9305,0,0,0,0,0,1.9117,1.9125,1.9131,1.9136,1.9168,1.9188,1.9192,1.9206,1.9208,1.9213,1.9227,1.9233,1.927,1.9266,1.9271,1.9276,1.9312,1.9312,1.9313,1.9305,1.9305,1.9305,0,0,0,0,0,0,1.9099,1.9128,1.9135,1.915,1.9167,1.9191,1.9197,1.9205,1.9221,1.9221,1.9238,1.9242,1.9259,1.9269,1.9264,1.9291,1.9292,1.9293,1.9284,1.9284,1.9284,1.9282,1.9272,0,0,0,0,0,1.9098,1.9112,1.9136,1.9148,1.9156,1.9176,1.9185,1.9195,1.9212,1.9219,1.9234,1.925,1.9266,1.9275,1.929,1.9307,1.9313,1.9313,1.9313,1.9313,1.9314,1.9327,1.9328,1.9315,1.9315,1.9315,0,0,1.9093,1.9111,1.9119,1.9145,1.9159,1.9174,1.9181,1.9196,1.9208,1.922,1.9239,1.9251,1.927,1.9287,1.9296,1.9296,1.932,1.9314,1.9314,1.9315,1.9328,1.9329,1.933,1.9316,1.9316,1.9315,0,0,1.9094,1.9108,1.9121,1.9136,1.9158,1.9171,1.9174,1.9198,1.9207,1.9226,1.9237,1.9251,1.9276,1.9291,1.9301,1.9312,1.9319,1.9316,1.9317,1.9328,1.933,1.9331,1.9336,1.9338,1.9317,1.9317,1.9317,0,1.9086,1.911,1.9126,1.9142,1.9154,1.9169,1.9183,1.9196,1.9221,1.9229,1.923,1.9266,1.9279,1.9302,1.9305,1.9312,1.9317,1.9314,1.9328,1.9329,1.9331,1.9336,1.9338,1.9317,1.9317,1.9317,1.9317,0,1.91,1.9116,1.9124,1.9151,1.9164,1.9178,1.9198,1.9209,1.9218,1.9232,1.9253,1.927,1.9291,1.9297,1.9305,1.9321,1.9322,1.9325,1.9326,1.9331,1.9337,1.9339,1.9316,1.9316,1.9317,1.9317,0,0,1.9088,1.9127,1.9129,1.9143,1.917,1.9183,1.9199,1.9221,1.9232,1.9249,1.9264,1.9287,1.9292,1.9304,1.9315,1.9325,1.9335,1.9328,1.9328,1.933,1.9357,1.9356,1.9358,1.934,1.9341,1.9341,1.9357,0,1.9094,1.9124,1.9142,1.9165,1.9182,1.9198,1.9212,1.9231,1.9245,1.9261,1.9276,1.9293,1.9297,1.9305,1.9316,1.9332,1.9341,1.9331,1.9355,1.9356,1.9351,1.936,1.9358,1.9371,1.9359,1.9359,1.9359,0,1.9103,1.9124,1.915,1.9178,1.9186,1.9198,1.9222,1.9237,1.9259,1.9269,1.9284,1.9296,1.9314,1.9314,1.9341,1.9334,1.9345,1.9355,1.9356,1.9359,1.9358,1.9366,1.9376,1.9378,1.9363,1.9362,1.9362,0,1.9095,1.9128,1.9149,1.916,1.9193,1.9202,1.9216,1.9238,1.9252,1.9272,1.9281,1.9303,1.9315,1.9331,1.9349,1.9347,1.9375,1.9376,1.9385,1.9384,1.939,1.939,1.9404,1.9395,1.9395,1.9395,1.9395,0,1.91,1.9116,1.9147,1.9159,1.9178,1.9198,1.9216,1.9232,1.9252,1.9269,1.9283,1.9298,1.932,1.9338,1.9352,1.9374,1.9378,1.9387,1.9391,1.9387,1.9386,1.9395,1.9395,1.9396,1.9396,1.9395,1.9395,0,1.9094,1.9115,1.9139,1.9169,1.9178,1.919,1.9217,1.923,1.9246,1.9267,1.9273,1.9298,1.9321,1.934,1.9369,1.9378,1.9401,1.9405,1.9394,1.9397,1.9405,1.9405,1.9426,1.9431,1.9418,1.9418,1.9418,0,1.9096,1.9109,1.9142,1.9155,1.9169,1.9189,1.9204,1.9225,1.924,1.9269,1.9279,1.9303,1.9324,1.9359,1.938,1.9403,1.9408,1.9414,1.9411,1.9408,1.9411,1.941,1.9413,1.9414,1.9414,1.9414,1.9414,0,1.9098,1.9109,1.913,1.9156,1.9173,1.9194,1.9215,1.9225,1.925,1.9266,1.9291,1.9307,1.9339,1.9363,1.9389,1.9404,1.9414,1.9415,1.9419,1.9415,1.941,1.9415,1.9397,1.9415,1.9415,1.9415,1.9415,1.9415,1.9097,1.9111,1.9137,1.9161,1.918,1.92,1.9216,1.9235,1.9256,1.9285,1.9296,1.9322,1.9346,1.9383,1.9398,1.9419,1.942,1.9425,1.9426,1.9427,1.9428,1.9406,1.9423,1.9423,1.9423,1.9423,1.9423,0,1.9102,1.9121,1.9142,1.9173,1.9193,1.9202,1.9227,1.9243,1.9266,1.9288,1.931,1.9339,1.9364,1.9388,1.9414,1.9426,1.9432,1.9433,1.9432,1.9436,1.9424,1.9419,1.9428,1.9428,1.9428,1.9428,1.9428,1.9428,1.9106,1.9131,1.9146,1.9181,1.9199,1.9226,1.924,1.9259,1.9278,1.9311,1.9333,1.9349,1.9373,1.9401,1.9425,1.9432,1.9441,1.9441,1.9449,1.9437,1.9436,1.9436,1.9432,1.9443,1.9443,1.9459,1.946,1.946]}]]